Mount Sterling, KY

9:47 PM EST on February 07, 2016 (GMT -0500)
Old Fogg Pike | | Change Station
CLOSE
Current Station
Personal Weather Station
Location: Mount Sterling, KY
Elevation: 1032 ft
Nearby Weather Stations
Active Advisory: Winter Weather Advisory

Elev 1032 ft 38.03 °N, 83.97 °W | Updated 30 seconds ago

Clear
Clear
37.9 °F
Feels Like 38 °F
N
0.0
Wind Variable Wind from SSE
Gusts 0.0 mph

Today
High -- | Low -- °F
--% Chance of Precip.
Yesterday
High -- | Low -- °F
Precip. -- in
Pressure 29.89 in
Visibility 10.0 miles
Clouds Clear
Windchill 38 °F
Dew Point 25 °F
Humidity 59%
Rainfall 0.00 in
Snow Depth Not available.
7:35 AM 6:05 PM
Waning Crescent, 0% visible
METAR KIOB 080235Z AUTO 23005KT 10SM CLR 05/M05 A2989 RMK AO2
Pressure 29.89 in
Visibility 10.0 miles
Clouds Clear
Windchill 38 °F
Dew Point 25 °F
Humidity 59%
Rainfall 0.00 in
Snow Depth Not available.
7:35 AM 6:05 PM
Waning Crescent, 0% visible
METAR KIOB 080235Z AUTO 23005KT 10SM CLR 05/M05 A2989 RMK AO2

10-Day Weather Forecast

Almanac

Astronomy

Feb. 07, 2016 Rise Set
Actual Time
Civil Twilight
Nautical Twilight
Astronomical Twilight
Moon
Length of Visible Light
Length of Day
Tomorrow will be .
, % of the Moon is Illuminated

Today's Extremes

State Highs State Lows

Community

WunderPhotos

Upload Photos

1,891,373 photos uploaded!

WunderBlog® & News

Nearby

Air Quality

  Air Quality AQ Index Pollutant
Not available.

Snow Depth

Station Depth Elevation

Earthquake Activity

City Distance Mag. Time & Date
Minimum magnitude displayed is 2.5.

Coastal Water Temperatures

Place Temperature

Stations

Nearby Weather Stations

Station Location Temp. Windchill Dew Point Humidity Wind Precip. Elev Updated Type
                   

Watches & Warnings

Winter Weather Advisory
Issued: 9:34 PM EST Feb. 7, 2016 – National Weather Service

... Winter Weather Advisory remains in effect from 6 PM Monday to
6 PM EST Tuesday...

* rain showers on Monday will change to snow by Monday
evening... and temperatures will fall below freezing. Snow
showers will continue at times into the day Tuesday... and then
begin to taper off.

* Snow will accumulate over a prolonged period... with totals by
late Tuesday in the 1 to 3 inch range for most locations.

* As temperatures fall below freezing... roads and walkways will
become slippery... especially those which are untreated.
Localized heavy snow showers may also bring greatly reduced
visibility at times.

Precautionary/preparedness actions...

A Winter Weather Advisory for snow means that periods of snow
will cause primarily travel difficulties. Be prepared for snow
covered roads and limited visibilities... and use caution while
driving.